CW5302 Weather Reports


Display with metric or nautical units.
time (UTC)temp
F
wind
direction
speed
MPH
gust
MPH
rain 1hr
in
rain 24hr
in
rain mn
in
humidity
%
barometer
mb
20260506134345 53 321 0.0 0.0 0.00 0.00 0.00 95 1017.1
20260506133319 53 321 0.0 0.0 0.00 0.00 0.00 95 1017.1
20260506132349 53 321 0.0 0.0 0.00 0.00 0.00 96 1016.7
20260506131323 53 321 0.0 0.0 0.00 0.00 0.00 96 1016.6
20260506130323 53 321 0.0 0.0 0.00 0.00 0.00 97 1016.6
20260506125319 52 321 0.0 0.0 0.00 0.00 0.00 97 1016.6
20260506124332 52 323 0.0 3.0 0.00 0.00 0.00 97 1016.2
20260506123325 52 323 0.0 0.0 0.00 0.00 0.00 98 1016.2
20260506122340 52 343 0.0 0.0 0.00 0.00 0.00 98 1016.2
20260506121349 52 343 0.0 0.0 0.00 0.00 0.00 98 1016.0
20260506120321 52 343 0.0 0.0 0.00 0.00 0.00 98 1016.0
20260506115332 52 343 0.0 0.0 0.00 0.00 0.00 98 1015.8
20260506114324 51 343 0.0 0.0 0.00 0.00 0.00 98 1015.7
20260506113337 51 343 0.0 0.0 0.00 0.00 0.00 98 1015.7
20260506112351 50 343 0.0 0.0 0.00 0.00 0.00 98 1015.6
20260506111340 50 343 0.0 0.0 0.00 0.00 0.00 97 1015.4
20260506110335 50 343 0.0 0.0 0.00 0.00 0.00 97 1015.4
20260506105347 50 343 0.0 0.0 0.00 0.00 0.00 97 1015.1
20260506104356 50 343 0.0 0.0 0.00 0.00 0.00 97 1015.1
20260506103326 51 343 0.0 0.0 0.00 0.00 0.00 97 1015.1
20260506102336 51 343 0.0 0.0 0.00 0.00 0.00 97 1015.1
20260506101330 50 343 0.0 0.0 0.00 0.00 0.00 96 1014.7
20260506100323 50 343 0.0 0.0 0.00 0.00 0.00 96 1014.7
20260506095317 51 343 0.0 0.0 0.00 0.00 0.00 96 1014.6
20260506094329 51 343 0.0 0.0 0.00 0.00 0.00 96 1014.6
20260506093319 51 343 0.0 0.0 0.00 0.00 0.00 95 1014.6
20260506092331 51 343 0.0 0.0 0.00 0.00 0.00 95 1014.5
20260506091323 51 343 0.0 0.0 0.00 0.00 0.00 95 1014.5
20260506090356 51 343 0.0 0.0 0.00 0.00 0.00 95 1014.5
20260506085324 52 343 0.0 0.0 0.00 0.00 0.00 95 1014.5
20260506084335 52 343 0.0 0.0 0.00 0.00 0.00 94 1014.4
20260506083325 52 343 0.0 0.0 0.00 0.00 0.00 94 1014.4
20260506082335 53 343 0.0 0.0 0.00 0.00 0.00 94 1014.3
20260506081327 53 343 0.0 0.0 0.00 0.00 0.00 94 1014.1
20260506080320 53 343 0.0 0.0 0.00 0.00 0.00 94 1014.1
20260506073343 54 343 0.0 0.0 0.00 0.00 0.00 93 1014.0
20260506072333 54 343 0.0 0.0 0.00 0.00 0.00 93 1013.8
20260506071325 55 343 0.0 0.0 0.00 0.00 0.00 92 1013.7
20260506070336 55 343 0.0 0.0 0.00 0.00 0.00 92 1013.7
20260506062332 56 343 0.0 0.0 0.00 0.00 0.00 90 1013.2
20260506061343 56 342 0.0 0.0 0.00 0.00 0.00 90 1013.0
20260506060333 57 342 0.0 0.0 0.00 0.00 0.00 90 1013.0
20260506051316 58 342 0.0 0.0 0.00 0.00 0.00 86 1012.5
20260506050328 59 342 0.0 0.0 0.00 0.00 0.00 85 1012.5
20260506044336 60 342 0.0 0.0 0.00 0.00 0.00 83 1012.0
20260506043329 61 342 0.0 0.0 0.00 0.00 0.00 81 1012.0
20260506042321 62 342 0.0 0.0 0.00 0.00 0.00 79 1011.9
20260506041355 62 342 0.0 0.0 0.00 0.00 0.00 76 1011.6
20260506040327 64 342 0.0 0.0 0.00 0.00 0.00 73 1011.6
20260506035339 65 342 0.0 0.0 0.00 0.00 0.00 70 1011.4
20260506034336 65 342 0.0 1.0 0.00 0.00 0.00 67 1011.0
20260506033327 66 20 0.0 1.0 0.00 0.00 0.00 64 1011.0
20260506032318 66 32 0.0 0.0 0.00 0.00 0.00 64 1010.9
20260506031331 67 32 0.0 1.0 0.00 0.00 0.00 64 1010.8
20260506030323 68 44 0.0 6.0 0.00 0.00 0.00 63 1010.8
20260506025335 69 63 0.0 4.0 0.00 0.00 0.00 64 1010.5
20260506024347 69 336 0.0 4.0 0.00 0.00 0.00 60 1010.4
20260506023318 70 355 0.0 5.0 0.00 0.00 0.00 59 1010.4
20260506022333 70 343 0.0 6.0 0.00 0.00 0.00 58 1010.4
20260506021346 71 26 0.0 7.0 0.00 0.00 0.00 61 1010.4
20260506020320 71 17 1.0 6.0 0.00 0.00 0.00 58 1010.4
20260506015331 73 345 1.0 6.0 0.00 0.00 0.00 56 1010.4
20260506014344 73 322 0.0 7.0 0.00 0.00 0.00 56 1010.4
20260506013316 73 32 2.0 7.0 0.00 0.00 0.00 54 1010.4
20260506012329 74 5 3.0 9.0 0.00 0.00 0.00 54 1010.3
20260506011327 74 70 0.0 5.0 0.00 0.00 0.00 55 1010.3
20260506010319 74 36 0.0 6.0 0.00 0.00 0.00 56 1010.3
20260506005329 74 26 2.0 8.0 0.00 0.00 0.00 55 1010.1
20260506004327 74 5 1.0 6.0 0.00 0.00 0.00 55 1010.1
20260506003324 74 13 1.0 7.0 0.00 0.00 0.00 55 1010.1
20260506002335 74 22 3.0 8.0 0.00 0.00 0.00 55 1010.1
20260506001327 74 77 2.0 7.0 0.00 0.00 0.00 56 1010.2
20260506000342 74 348 1.0 7.0 0.00 0.00 0.00 53 1010.2
20260505235333 74 13 1.0 5.0 0.00 0.00 0.00 54 1010.4
20260505234327 74 313 1.0 5.0 0.00 0.00 0.00 57 1010.4
20260505233319 74 340 3.0 7.0 0.00 0.00 0.00 54 1010.4
20260505232330 73 5 1.0 8.0 0.00 0.00 0.00 55 1010.4
20260505231332 73 36 3.0 8.0 0.00 0.00 0.00 56 1010.6
20260505230328 73 317 0.0 6.0 0.00 0.00 0.00 58 1010.6
20260505225325 73 64 1.0 5.0 0.00 0.00 0.00 58 1010.8
20260505224336 72 47 0.0 8.0 0.00 0.00 0.00 57 1011.0
20260505223329 71 18 0.0 7.0 0.00 0.00 0.00 60 1011.0
20260505222322 71 13 1.0 6.0 0.00 0.00 0.00 61 1011.3
20260505221333 70 319 1.0 10.0 0.00 0.00 0.00 59 1011.4
20260505220327 70 54 1.0 9.0 0.00 0.00 0.00 61 1011.4
20260505215318 69 347 0.0 7.0 0.00 0.00 0.00 59 1011.5
20260505214333 70 48 1.0 5.0 0.00 0.00 0.00 64 1011.7
20260505213324 69 40 1.0 4.0 0.00 0.00 0.00 62 1011.7
20260505212320 69 24 1.0 7.0 0.00 0.00 0.00 63 1011.9
20260505211337 68 336 2.0 7.0 0.00 0.00 0.00 62 1011.9
20260505210329 68 34 2.0 8.0 0.00 0.00 0.00 62 1011.9
20260505205326 68 5 2.0 6.0 0.00 0.00 0.00 62 1011.9
20260505204321 67 86 0.0 2.0 0.00 0.00 0.00 67 1012.0
20260505203316 66 144 0.0 4.0 0.00 0.00 0.00 67 1012.0
20260505202332 66 120 0.0 7.0 0.00 0.00 0.00 67 1012.4
20260505201327 65 5 2.0 5.0 0.00 0.00 0.00 64 1012.5
20260505200319 65 46 0.0 3.0 0.00 0.00 0.00 66 1012.5
20260505195353 65 181 0.0 4.0 0.00 0.00 0.00 66 1012.4
20260505194343 64 294 0.0 4.0 0.00 0.00 0.00 68 1012.4
20260505193336 64 321 1.0 4.0 0.00 0.00 0.00 67 1012.4
20260505192345 64 263 0.0 4.0 0.00 0.00 0.00 68 1012.5
20260505191320 63 240 1.0 3.0 0.00 0.00 0.00 69 1012.5
20260505190331 63 330 0.0 2.0 0.00 0.00 0.00 70 1012.5
20260505185323 62 329 0.0 5.0 0.00 0.00 0.00 69 1012.5
20260505184356 62 329 0.0 4.0 0.00 0.00 0.00 71 1012.5
20260505183326 62 328 0.0 3.0 0.00 0.00 0.00 71 1012.5
20260505182338 62 322 0.0 0.0 0.00 0.00 0.00 72 1012.5
20260505181331 61 345 0.0 0.0 0.00 0.00 0.00 73 1012.5
20260505180327 61 345 0.0 0.0 0.00 0.00 0.00 74 1012.5
20260505175317 61 345 0.0 0.0 0.00 0.00 0.00 73 1012.4
20260505174331 61 345 0.0 0.0 0.00 0.00 0.00 71 1012.5
20260505173328 60 345 0.0 0.0 0.00 0.00 0.00 73 1012.5
20260505172342 60 345 0.0 0.0 0.00 0.00 0.00 75 1012.5
20260505171319 60 345 1.0 4.0 0.00 0.00 0.00 76 1012.5
20260505170330 59 304 0.0 1.0 0.00 0.00 0.00 74 1012.5
20260505165321 59 227 0.0 0.0 0.00 0.00 0.00 76 1012.5
20260505164334 58 205 0.0 0.0 0.00 0.00 0.00 75 1012.5
20260505163328 58 205 0.0 0.0 0.00 0.00 0.00 75 1012.5
20260505162325 58 252 0.0 2.0 0.00 0.00 0.00 76 1012.5
20260505161320 58 244 0.0 0.0 0.00 0.00 0.00 78 1012.5
20260505160322 58 244 0.0 0.0 0.00 0.00 0.00 79 1012.5
20260505153321 56 243 0.0 0.0 0.00 0.00 0.00 83 1012.5
20260505152315 56 243 0.0 0.0 0.00 0.00 0.00 83 1012.5
20260505151320 56 239 0.0 1.0 0.00 0.00 0.00 84 1012.5
20260505150331 56 298 0.0 3.0 0.00 0.00 0.00 84 1012.5
20260505140329 55 290 0.0 0.0 0.00 0.00 0.00 88 1012.3